"startDT [UTC]","vpos","CH4 [ppm]","stdev(CH4) [ppm]","CO2 [ppm]","stdev(CO2) [ppm]","H2O_reported [%]","stdev(H2O_reported)","CavityPressure [torr]","CavityTemp [C]","OutletValve","CH4_dry [ppm]","CO2_dry [ppm]","DasTemp [C]","EtalonTemp [C]","WarmBoxTemp [C]","MPVPosition","T_ECpre [C]","T_EC1 [C]","T_EC2 [C]","p_inlet [hPa]","p_in [hPa]","p_out [hPa]","T_inlet [C]","RH_inlet [%]","dwpt_inlet [C]","T_vent [C]","RH_vent [%]","dwpt_vent [C]","flow_vent [l min-1]","flow_inlet [l min-1]","dwpt_sample [C]","T_room [C]"
2015-09-08 00:00:00,0.0,1.91592,0.00081,391.523,0.036,0.8227,0.0064,140.001,45.000,31861.52575,1.93174,395.499,37.031,45.067,45.000,0.00,0.10,-272.72,-272.79,-16,529,-947,27.3,17.4,0.4,27.1,17.9,0.6,5.73,1.77,5.6,31.0
2015-09-08 00:01:00,0.0,1.91587,0.00076,391.573,0.049,0.8209,0.0070,139.999,45.000,31861.33261,1.93180,395.541,37.028,45.067,45.000,0.00,0.10,-272.73,-272.80,-17,530,-947,27.3,17.3,0.3,27.1,17.9,0.6,5.73,1.80,5.5,30.9
2015-09-08 00:02:00,0.0,1.91712,0.00111,391.571,0.040,0.8232,0.0064,139.998,45.000,31860.77985,1.93296,395.550,37.040,45.067,45.000,0.00,0.10,-272.73,-272.80,-17,530,-947,27.3,17.4,0.4,27.1,17.9,0.6,5.73,1.91,5.6,31.0
2015-09-08 00:03:00,0.0,1.91634,0.00087,391.598,0.041,0.8204,0.0068,140.000,45.000,31861.09286,1.93229,395.563,37.060,45.067,45.000,0.00,0.10,-272.72,-272.78,-17,530,-947,27.3,17.3,0.4,27.1,17.9,0.6,5.73,1.99,5.5,30.9
2015-09-08 00:04:00,0.0,1.91723,0.00064,391.545,0.039,0.8354,0.0061,139.999,45.000,31862.89634,1.93342,395.584,37.063,45.067,45.000,0.00,0.10,-272.73,-272.80,-17,529,-947,27.3,17.7,0.6,27.1,18.1,0.8,5.73,1.99,5.6,31.0
2015-09-08 00:05:00,0.0,1.91685,0.00112,391.623,0.067,0.8218,0.0115,139.999,45.000,31859.58744,1.93271,395.597,37.063,45.067,45.000,0.00,0.10,-272.73,-272.80,-17,530,-947,27.3,17.4,0.4,27.1,18.0,0.7,5.73,1.89,5.6,31.0
2015-09-08 00:06:00,0.0,1.91611,0.00219,391.610,0.086,0.8138,0.0196,140.002,45.000,31859.84364,1.93203,395.544,37.065,45.067,45.000,0.00,0.10,-272.73,-272.79,-17,530,-947,27.3,17.1,0.1,27.1,17.8,0.6,5.73,1.78,5.6,31.0
2015-09-08 00:07:00,0.0,1.91453,0.00075,391.709,0.025,0.7991,0.0074,139.999,45.000,31858.85411,1.92995,395.570,37.064,45.067,45.000,0.00,0.10,-272.72,-272.79,-17,530,-947,27.3,16.8,-0.1,27.1,17.4,0.2,5.73,1.78,5.5,31.0
2015-09-08 00:08:00,0.0,1.91459,0.00075,391.664,0.052,0.7968,0.0089,140.002,45.000,31860.48467,1.92996,395.514,37.067,45.066,45.000,0.00,0.10,-272.73,-272.80,-17,530,-947,27.3,16.8,-0.1,27.1,17.4,0.2,5.73,1.88,5.5,30.9
2015-09-08 00:09:00,0.0,1.91655,0.00130,391.578,0.062,0.8205,0.0116,140.001,45.000,31861.88553,1.93235,395.542,37.063,45.067,45.000,0.00,0.10,-272.73,-272.79,-16,530,-947,27.3,17.4,0.4,27.1,17.7,0.4,5.73,1.98,5.5,30.8
2015-09-08 00:10:00,0.0,1.91779,0.00098,391.465,0.043,0.8356,0.0089,139.998,45.000,31861.87343,1.93401,395.505,37.078,45.067,45.000,0.00,0.10,-272.72,-272.79,-16,530,-947,27.3,17.6,0.6,27.1,18.2,0.8,5.73,2.00,5.5,31.0
2015-09-08 00:11:00,0.0,1.91529,0.00061,391.556,0.046,0.8099,0.0064,139.999,45.000,31861.98223,1.93103,395.469,37.070,45.067,45.000,0.00,0.10,-272.73,-272.80,-17,530,-947,27.3,17.0,0.1,27.1,17.8,0.5,5.73,1.92,5.5,30.9
2015-09-08 00:12:00,0.0,1.91529,0.00120,391.619,0.047,0.8042,0.0139,140.000,45.000,31859.83890,1.93079,395.502,37.066,45.067,45.000,0.00,0.10,-272.73,-272.80,-17,530,-947,27.3,17.0,0.1,27.1,17.5,0.3,5.73,1.81,5.5,31.0
2015-09-08 00:13:00,0.0,1.91519,0.00075,391.583,0.044,0.8134,0.0084,140.001,45.000,31860.71815,1.93091,395.513,37.063,45.067,45.000,0.00,0.10,-272.73,-272.79,-17,530,-947,27.3,17.1,0.2,27.1,17.7,0.5,5.73,1.76,5.5,31.0
2015-09-08 00:14:00,0.0,1.91482,0.00072,391.651,0.053,0.8089,0.0081,139.999,45.000,31859.46814,1.93047,395.559,37.063,45.067,45.000,0.00,0.10,-272.73,-272.79,-17,530,-947,27.3,17.1,0.2,27.1,17.6,0.4,5.73,1.84,5.5,30.9
2015-09-08 00:15:00,0.0,1.91516,0.00091,391.616,0.041,0.8152,0.0089,139.998,45.000,31860.48991,1.93086,395.556,37.060,45.067,45.000,0.00,0.10,-272.74,-272.79,-17,530,-947,27.3,17.1,0.2,27.1,17.7,0.5,5.73,1.95,5.5,30.9
2015-09-08 00:16:00,0.0,1.91402,0.00057,391.682,0.040,0.7958,0.0090,140.001,45.000,31861.12915,1.92949,395.528,37.042,45.067,45.000,0.00,0.10,-272.73,-272.79,-17,530,-947,27.3,16.7,-0.1,27.1,17.4,0.3,5.73,2.01,5.5,31.0
2015-09-08 00:17:00,0.0,1.91549,0.00057,391.583,0.036,0.8148,0.0049,140.000,45.000,31863.71745,1.93118,395.519,37.063,45.067,45.000,0.00,0.10,-272.73,-272.79,-17,530,-947,27.3,17.2,0.2,27.1,17.6,0.4,5.73,1.95,5.5,31.0
2015-09-08 00:18:00,0.0,1.91562,0.00069,391.558,0.029,0.8196,0.0061,140.000,45.000,31863.69294,1.93148,395.520,37.063,45.067,45.000,0.00,0.10,-272.72,-272.80,-17,530,-947,27.3,17.3,0.4,27.1,17.8,0.6,5.73,1.84,5.5,31.0
2015-09-08 00:19:00,0.0,1.91486,0.00082,391.582,0.040,0.8095,0.0094,139.996,45.000,31860.45812,1.93061,395.495,37.063,45.067,45.000,0.00,0.10,-272.72,-272.79,-17,530,-947,27.3,17.0,0.1,27.1,17.7,0.5,5.73,1.76,5.5,30.9
2015-09-08 00:20:00,0.0,1.91432,0.00073,391.546,0.043,0.8098,0.0074,140.001,45.000,31861.83822,1.92998,395.458,37.063,45.067,45.000,0.00,0.10,-272.72,-272.78,-17,530,-947,27.3,17.0,0.1,27.1,17.5,0.4,5.73,1.81,5.5,30.9
2015-09-08 00:21:00,0.0,1.91439,0.00062,391.506,0.040,0.8159,0.0065,140.001,45.000,31864.76117,1.93014,395.448,37.064,45.067,45.000,0.00,0.10,-272.73,-272.79,-17,530,-947,27.3,17.2,0.3,27.1,17.7,0.5,5.73,1.92,5.5,30.9
2015-09-08 00:22:00,0.0,1.91543,0.00064,391.437,0.039,0.8286,0.0070,140.002,45.000,31867.44039,1.93140,395.441,37.070,45.067,45.000,0.00,0.10,-272.73,-272.79,-17,530,-947,27.3,17.5,0.5,27.1,17.9,0.7,5.73,2.00,5.5,30.9
2015-09-08 00:23:00,0.0,1.91509,0.00106,391.500,0.056,0.8217,0.0071,139.997,45.000,31863.91446,1.93106,395.471,37.075,45.067,45.000,0.00,0.10,-272.73,-272.79,-17,530,-947,27.3,17.3,0.4,27.1,17.9,0.7,5.73,1.98,5.5,30.9
2015-09-08 00:24:00,0.0,1.91467,0.00120,391.534,0.055,0.8184,0.0115,139.999,45.000,31864.62864,1.93038,395.488,37.088,45.067,45.000,0.00,0.10,-272.73,-272.80,-17,530,-947,27.3,17.3,0.3,27.1,17.7,0.5,5.73,1.87,5.5,30.9
2015-09-08 00:25:00,0.0,1.91534,0.00126,391.465,0.070,0.8316,0.0128,140.001,45.000,31865.22216,1.93145,395.485,37.116,45.067,45.000,0.00,0.10,-272.73,-272.80,-17,530,-947,27.3,17.5,0.5,27.1,18.1,0.8,5.73,1.77,5.5,30.9
2015-09-08 00:26:00,0.0,1.91554,0.00084,391.477,0.064,0.8295,0.0087,139.998,45.000,31862.86689,1.93166,395.488,37.125,45.067,45.000,0.00,0.10,-272.73,-272.79,-17,530,-947,27.3,17.5,0.5,27.1,18.0,0.7,5.73,1.79,5.5,31.0
2015-09-08 00:27:00,0.0,1.91593,0.00092,391.463,0.044,0.8304,0.0109,139.998,45.000,31865.10300,1.93193,395.477,37.125,45.066,45.000,0.00,0.10,-272.73,-272.79,-17,530,-947,27.3,17.5,0.5,27.1,18.1,0.8,5.73,1.90,5.5,31.0
2015-09-08 00:28:00,0.0,1.91695,0.00083,391.427,0.057,0.8362,0.0095,139.997,45.000,31864.90575,1.93311,395.468,37.126,45.066,45.000,0.00,0.10,-272.74,-272.79,-17,530,-947,27.3,17.7,0.6,27.1,18.1,0.8,5.73,2.00,5.5,30.9
2015-09-08 00:29:00,0.0,1.91553,0.00137,391.450,0.081,0.8238,0.0159,140.000,45.000,31865.31501,1.93159,395.433,37.127,45.066,45.000,0.00,0.10,-272.73,-272.79,-17,530,-947,27.3,17.3,0.4,27.1,18.1,0.8,5.73,1.99,5.5,30.9
2015-09-08 00:30:00,0.0,1.91588,0.00095,391.395,0.052,0.8338,0.0085,140.001,45.000,31866.91234,1.93189,395.423,37.125,45.067,45.000,0.00,0.10,-272.73,-272.79,-16,530,-947,27.3,17.6,0.6,27.1,18.0,0.7,5.73,1.89,5.5,30.9
2015-09-08 00:31:00,0.0,1.91611,0.00111,391.313,0.041,0.8494,0.0093,140.000,45.000,31865.49715,1.93270,395.422,37.126,45.067,45.000,0.00,0.10,-272.73,-272.79,-17,530,-947,27.3,17.8,0.8,27.1,18.4,1.1,5.73,1.78,5.5,30.9
2015-09-08 00:32:00,0.0,1.91423,0.00058,391.367,0.052,0.8171,0.0081,140.001,45.000,31869.41787,1.93003,395.315,37.124,45.067,45.000,0.00,0.10,-272.73,-272.79,-17,530,-947,27.3,17.2,0.3,27.1,17.9,0.7,5.73,1.78,5.5,30.9
2015-09-08 00:33:00,0.0,1.91445,0.00056,391.360,0.038,0.8126,0.0065,140.000,45.000,31869.63128,1.93011,395.284,37.128,45.067,45.000,0.00,0.10,-272.72,-272.79,-17,530,-947,27.3,17.1,0.2,27.1,17.7,0.5,5.73,1.89,5.5,30.9
2015-09-08 00:34:00,0.0,1.91447,0.00101,391.305,0.053,0.8204,0.0106,140.001,45.000,31870.32153,1.93038,395.267,37.156,45.067,45.000,0.00,0.10,-272.72,-272.79,-17,530,-947,27.3,17.2,0.3,27.1,17.8,0.6,5.73,1.99,5.5,30.9
2015-09-08 00:35:00,0.0,1.91392,0.00068,391.277,0.053,0.8240,0.0076,140.001,45.000,31872.02372,1.92983,395.257,37.181,45.067,45.000,0.00,0.10,-272.74,-272.80,-17,530,-947,27.3,17.3,0.4,27.1,17.9,0.6,5.73,1.99,5.5,31.0
2015-09-08 00:36:00,0.0,1.91377,0.00107,391.253,0.037,0.8213,0.0107,140.001,45.000,31870.56235,1.92969,395.222,37.189,45.067,45.000,0.00,0.10,-272.73,-272.79,-17,530,-947,27.3,17.2,0.3,27.1,17.9,0.7,5.73,1.89,5.5,31.0
2015-09-08 00:37:00,0.0,1.91453,0.00062,391.174,0.067,0.8325,0.0126,139.998,45.000,31867.90803,1.93057,395.194,37.188,45.067,45.000,0.00,0.10,-272.72,-272.79,-17,530,-947,27.3,17.5,0.5,27.1,17.9,0.7,5.73,1.77,5.5,30.9
2015-09-08 00:38:00,0.0,1.91264,0.00073,391.218,0.040,0.8092,0.0101,140.000,45.000,31868.28249,1.92836,395.126,37.188,45.067,45.000,0.00,0.10,-272.73,-272.80,-17,530,-947,27.3,16.9,0.0,27.1,17.7,0.5,5.73,1.78,5.5,31.0
2015-09-08 00:39:00,0.0,1.91205,0.00063,391.192,0.053,0.8123,0.0131,140.000,45.000,31868.05829,1.92771,395.112,37.188,45.067,45.000,0.00,0.10,-272.73,-272.80,-16,530,-947,27.3,17.1,0.2,27.1,17.5,0.4,5.73,1.90,5.5,31.0
2015-09-08 00:40:00,0.0,1.91283,0.00056,391.101,0.052,0.8329,0.0082,140.002,45.000,31867.23008,1.92890,395.123,37.188,45.067,45.000,0.00,0.10,-272.73,-272.78,-17,530,-947,27.3,17.5,0.5,27.1,18.0,0.8,5.73,2.01,5.5,31.0
2015-09-08 00:41:00,0.0,1.91226,0.00053,391.168,0.059,0.8144,0.0123,140.001,45.000,31867.96643,1.92805,395.099,37.188,45.067,45.000,0.00,0.10,-272.73,-272.79,-17,530,-947,27.3,17.1,0.2,27.1,17.7,0.5,5.73,1.98,5.5,31.0
2015-09-08 00:42:00,0.0,1.91220,0.00052,391.160,0.058,0.8176,0.0107,139.999,45.000,31869.92612,1.92800,395.108,37.189,45.067,45.000,0.00,0.10,-272.73,-272.80,-17,530,-947,27.3,17.1,0.2,27.1,17.7,0.5,5.73,1.86,5.5,31.0
2015-09-08 00:43:00,0.0,1.91250,0.00063,391.205,0.046,0.8004,0.0079,139.999,45.000,31868.53392,1.92792,395.068,37.190,45.067,45.000,0.00,0.10,-272.73,-272.79,-17,530,-947,27.4,16.8,-0.0,27.1,17.4,0.3,5.73,1.76,5.6,31.0
2015-09-08 00:44:00,0.0,1.91187,0.00051,391.142,0.027,0.7960,0.0077,140.000,45.000,31870.78917,1.92726,394.984,37.189,45.067,45.000,0.00,0.10,-272.72,-272.79,-17,530,-947,27.4,16.6,-0.2,27.1,17.3,0.2,5.73,1.80,5.5,31.0
2015-09-08 00:45:00,0.0,1.91160,0.00043,391.197,0.046,0.7841,0.0084,139.999,45.000,31868.46445,1.92670,394.979,37.196,45.067,45.000,0.00,0.10,-272.73,-272.80,-17,530,-947,27.4,16.4,-0.4,27.1,17.0,-0.0,5.73,1.93,5.5,30.9
2015-09-08 00:46:00,0.0,1.91204,0.00042,391.200,0.038,0.7929,0.0058,140.001,45.000,31867.06104,1.92732,395.022,37.196,45.067,45.000,0.00,0.10,-272.73,-272.79,-17,530,-947,27.4,16.6,-0.2,27.1,17.0,0.0,5.73,2.02,5.5,30.9
2015-09-08 00:47:00,0.0,1.91221,0.00044,391.135,0.050,0.8029,0.0093,140.001,45.000,31868.66144,1.92767,395.008,37.192,45.067,45.000,0.00,0.10,-272.72,-272.79,-17,530,-947,27.4,16.8,0.0,27.2,17.3,0.2,5.73,1.96,5.5,31.0
2015-09-08 00:48:00,0.0,1.91229,0.00049,391.078,0.058,0.7955,0.0163,140.000,45.000,31869.38904,1.92769,394.919,37.226,45.067,45.000,0.00,0.10,-272.72,-272.80,-17,530,-947,27.4,16.6,-0.2,27.2,17.3,0.2,5.73,1.82,5.5,31.0
2015-09-08 00:49:00,0.0,1.91230,0.00031,391.186,0.039,0.7748,0.0075,139.999,45.000,31867.04872,1.92724,394.920,37.246,45.067,45.000,0.00,0.10,-272.73,-272.80,-17,530,-947,27.4,16.2,-0.5,27.2,16.8,-0.2,5.73,1.76,5.5,31.0
2015-09-08 00:50:00,0.0,1.91202,0.00046,391.107,0.030,0.7951,0.0083,139.995,45.000,31867.97261,1.92735,394.943,37.250,45.067,45.000,0.00,0.10,-272.73,-272.79,-17,530,-947,27.4,16.6,-0.2,27.2,17.1,0.1,5.73,1.83,5.5,31.1
2015-09-08 00:51:00,0.0,1.91222,0.00054,391.103,0.037,0.7895,0.0074,139.998,45.000,31868.89208,1.92742,394.910,37.250,45.067,45.000,0.00,0.10,-272.73,-272.79,-17,530,-947,27.4,16.5,-0.2,27.2,17.0,-0.0,5.73,1.98,5.5,31.1
2015-09-08 00:52:00,0.0,1.91255,0.00047,391.037,0.040,0.8051,0.0055,140.000,45.000,31868.37912,1.92813,394.921,37.250,45.067,45.000,0.00,0.10,-272.74,-272.80,-17,530,-947,27.4,16.9,0.1,27.2,17.3,0.3,5.73,2.01,5.5,31.1
2015-09-08 00:53:00,0.0,1.91207,0.00066,391.070,0.050,0.7936,0.0099,139.999,45.000,31870.04090,1.92740,394.900,37.250,45.067,45.000,0.00,0.10,-272.73,-272.79,-17,530,-947,27.4,16.6,-0.2,27.2,17.3,0.2,5.73,1.91,5.6,31.1
2015-09-08 00:54:00,0.0,1.91199,0.00042,391.123,0.047,0.7840,0.0076,140.001,45.000,31872.18795,1.92709,394.902,37.249,45.067,45.000,0.00,0.10,-272.72,-272.79,-17,530,-947,27.4,16.4,-0.3,27.2,17.0,-0.0,5.73,1.78,5.5,31.1
2015-09-08 00:55:00,0.0,1.91228,0.00051,391.027,0.047,0.7999,0.0085,140.000,45.000,31870.78967,1.92769,394.885,37.249,45.067,45.000,0.00,0.10,-272.73,-272.79,-17,530,-947,27.4,16.7,-0.1,27.2,17.1,0.1,5.73,1.77,5.5,31.0
2015-09-08 00:56:00,0.0,1.91206,0.00034,391.038,0.030,0.7935,0.0062,140.002,45.000,31872.71448,1.92739,394.864,37.250,45.067,45.000,0.00,0.10,-272.73,-272.79,-17,530,-947,27.4,16.6,-0.2,27.2,17.1,0.1,5.73,1.89,5.5,31.1
2015-09-08 00:57:00,0.0,1.91228,0.00048,391.007,0.063,0.8034,0.0129,139.998,45.000,31871.85795,1.92776,394.881,37.255,45.067,45.000,0.00,0.10,-272.73,-272.78,-17,530,-947,27.4,16.8,0.0,27.2,17.2,0.2,5.73,2.01,5.5,31.1
2015-09-08 00:58:00,0.0,1.91244,0.00057,391.002,0.033,0.7883,0.0115,139.996,45.000,31873.06319,1.92770,394.804,37.257,45.067,45.000,0.00,0.10,-272.73,-272.79,-17,530,-947,27.4,16.4,-0.3,27.2,17.2,0.2,5.73,1.98,5.5,31.0
2015-09-08 00:59:00,0.0,1.91215,0.00046,391.061,0.042,0.7800,0.0038,140.000,45.000,31874.31803,1.92720,394.821,37.273,45.067,45.000,0.00,0.10,-272.73,-272.80,-17,530,-947,27.4,16.2,-0.5,27.2,16.8,-0.1,5.73,1.85,5.5,31.0
2015-09-08 01:00:00,0.0,1.91202,0.00038,391.065,0.061,0.7879,0.0138,140.001,45.000,31874.17816,1.92715,394.862,37.254,45.067,45.000,0.00,0.10,-272.72,-272.79,-17,530,-947,27.4,16.5,-0.2,27.2,16.9,-0.1,5.73,1.76,5.5,31.1
2015-09-08 01:01:00,0.0,1.91259,0.00056,391.060,0.071,0.7883,0.0144,140.002,45.000,31872.93658,1.92780,394.859,37.250,45.067,45.000,0.00,0.10,-272.72,-272.79,-17,530,-947,27.4,16.4,-0.3,27.2,17.0,0.0,5.73,1.82,5.5,31.1
2015-09-08 01:02:00,0.0,1.91274,0.00036,391.052,0.040,0.7921,0.0052,139.998,45.000,31871.92035,1.92806,394.873,37.249,45.067,45.000,0.00,0.10,-272.73,-272.79,-17,530,-947,27.4,16.5,-0.2,27.2,17.1,0.1,5.73,1.94,5.5,31.0
2015-09-08 01:03:00,0.0,1.91244,0.00041,391.124,0.031,0.7823,0.0066,140.000,45.000,31872.40036,1.92753,394.897,37.225,45.066,45.000,0.00,0.10,-272.73,-272.79,-17,530,-947,27.4,16.3,-0.4,27.2,16.9,-0.0,5.73,2.01,5.5,31.0
2015-09-08 01:04:00,0.0,1.91264,0.00040,391.041,0.073,0.7912,0.0123,140.001,44.999,31872.97614,1.92788,394.855,37.188,45.066,45.000,0.00,0.10,-272.73,-272.79,-17,530,-947,27.4,16.5,-0.2,27.2,16.9,-0.0,5.73,1.95,5.4,30.9
2015-09-08 01:05:00,0.0,1.91245,0.00046,391.076,0.030,0.7896,0.0094,139.999,45.000,31870.61194,1.92770,394.882,37.152,45.066,45.000,0.00,0.10,-272.73,-272.80,-17,530,-947,27.4,16.5,-0.2,27.2,17.0,0.0,5.73,1.83,5.3,30.9
2015-09-08 01:06:00,0.0,1.91236,0.00037,391.092,0.039,0.7802,0.0072,140.001,45.000,31870.23780,1.92740,394.856,37.127,45.066,45.000,0.00,0.10,-272.73,-272.80,-17,530,-947,27.4,16.2,-0.5,27.2,16.9,-0.1,5.73,1.77,5.3,30.9
2015-09-08 01:07:00,0.0,1.91261,0.00048,390.997,0.072,0.7981,0.0158,140.001,45.000,31870.72556,1.92798,394.845,37.088,45.066,45.000,0.00,0.10,-272.72,-272.79,-17,530,-947,27.4,16.8,-0.0,27.2,17.0,0.0,5.73,1.81,5.3,30.9
2015-09-08 01:08:00,0.0,1.91314,0.00066,390.828,0.053,0.8222,0.0065,140.000,44.999,31869.87763,1.92905,394.793,37.050,45.066,45.000,0.00,0.10,-272.73,-272.79,-17,530,-947,27.4,17.3,0.4,27.1,17.7,0.5,5.73,1.92,5.2,30.8
2015-09-08 01:09:00,0.0,1.91284,0.00061,390.884,0.039,0.8189,0.0061,140.001,45.000,31869.90355,1.92869,394.835,37.003,45.067,45.000,0.00,0.10,-272.73,-272.79,-17,530,-947,27.4,17.2,0.3,27.2,17.7,0.6,5.73,1.99,5.2,30.8
2015-09-08 01:10:00,0.0,1.91239,0.00066,391.011,0.039,0.7959,0.0093,140.000,45.000,31869.45293,1.92774,394.851,36.982,45.067,45.000,0.00,0.10,-272.73,-272.79,-17,530,-947,27.4,16.6,-0.1,27.1,17.3,0.2,5.73,1.99,5.1,30.9
2015-09-08 01:11:00,0.0,1.91279,0.00035,390.934,0.059,0.8043,0.0082,140.000,45.000,31866.99133,1.92826,394.813,36.939,45.067,45.000,0.00,0.10,-272.73,-272.79,-17,530,-947,27.4,16.9,0.0,27.1,17.3,0.2,5.73,1.88,5.1,30.9
2015-09-08 01:12:00,0.0,1.91269,0.00045,391.008,0.060,0.7854,0.0130,139.999,45.000,31867.00602,1.92792,394.796,36.939,45.067,45.000,0.00,0.10,-272.73,-272.79,-17,530,-946,27.3,16.4,-0.4,27.1,17.1,0.1,5.73,1.79,5.0,30.9
2015-09-08 01:13:00,0.0,1.91236,0.00046,391.003,0.045,0.7856,0.0086,139.999,45.000,31865.78894,1.92747,394.788,36.935,45.067,45.000,0.00,0.10,-272.73,-272.80,-17,530,-946,27.3,16.5,-0.3,27.1,16.9,-0.1,5.73,1.78,5.0,30.9
2015-09-08 01:14:00,0.0,1.91300,0.00053,391.010,0.044,0.7904,0.0092,139.998,45.000,31862.22152,1.92828,394.823,36.898,45.067,45.000,0.00,0.10,-272.73,-272.80,-17,530,-946,27.3,16.5,-0.3,27.1,17.1,0.0,5.73,1.85,5.0,30.9
2015-09-08 01:15:00,0.0,1.91254,0.00043,391.003,0.035,0.7794,0.0027,139.999,45.000,31862.40442,1.92756,394.758,36.875,45.067,45.000,0.00,0.10,-272.73,-272.80,-17,530,-946,27.3,16.3,-0.5,27.1,16.9,-0.1,5.73,1.94,4.9,30.9
2015-09-08 01:16:00,0.0,1.91300,0.00042,391.046,0.032,0.7834,0.0057,140.001,45.000,31860.14433,1.92810,394.824,36.858,45.067,45.000,0.00,0.10,-272.73,-272.79,-17,530,-946,27.3,16.4,-0.4,27.1,16.9,-0.1,5.73,2.00,4.9,30.9
2015-09-08 01:17:00,0.0,1.91337,0.00032,391.067,0.039,0.7760,0.0088,140.002,45.000,31857.10780,1.92833,394.804,36.812,45.067,45.000,0.00,0.10,-272.72,-272.79,-17,530,-946,27.3,16.3,-0.5,27.1,16.8,-0.2,5.73,1.96,4.9,30.9
2015-09-08 01:18:00,0.0,1.91324,0.00043,390.950,0.062,0.7972,0.0075,140.000,45.000,31856.27809,1.92863,394.798,36.797,45.067,45.000,0.00,0.10,-272.73,-272.80,-17,530,-946,27.3,16.8,-0.1,27.1,17.1,0.0,5.73,1.88,4.8,30.9
2015-09-08 01:19:00,0.0,1.91340,0.00035,390.963,0.053,0.7809,0.0072,139.999,45.000,31854.64627,1.92847,394.725,36.752,45.066,45.000,0.00,0.10,-272.73,-272.80,-17,530,-946,27.2,16.4,-0.5,27.1,17.0,-0.0,5.73,1.80,4.7,30.8
2015-09-08 01:20:00,0.0,1.91340,0.00046,390.943,0.061,0.7976,0.0130,140.000,44.999,31854.61882,1.92879,394.787,36.723,45.066,45.000,0.00,0.10,-272.73,-272.79,-17,530,-946,27.2,16.9,-0.1,27.1,17.1,0.0,5.73,1.79,4.7,30.8
2015-09-08 01:21:00,0.0,1.91307,0.00041,390.950,0.056,0.7904,0.0154,139.999,44.999,31853.25236,1.92834,394.763,36.688,45.066,45.000,0.00,0.10,-272.73,-272.79,-17,530,-946,27.2,16.6,-0.3,27.0,17.3,0.1,5.73,1.83,4.6,30.8
2015-09-08 01:22:00,0.0,1.91294,0.00044,391.002,0.048,0.7794,0.0073,139.998,45.000,31853.21091,1.92797,394.756,36.686,45.066,45.000,0.00,0.10,-272.74,-272.80,-17,530,-946,27.2,16.5,-0.4,27.0,16.9,-0.2,5.73,1.90,4.6,30.8
2015-09-08 01:23:00,0.0,1.91337,0.00042,390.849,0.055,0.8106,0.0083,139.999,44.999,31851.45138,1.92900,394.757,36.649,45.066,45.000,0.00,0.10,-272.73,-272.79,-17,530,-946,27.2,17.2,0.2,27.0,17.4,0.2,5.73,1.96,4.6,30.7
2015-09-08 01:24:00,0.0,1.91377,0.00059,390.795,0.054,0.8197,0.0085,140.003,44.999,31850.55205,1.92959,394.748,36.628,45.067,45.000,0.00,0.10,-272.73,-272.78,-17,530,-946,27.1,17.4,0.3,27.0,17.8,0.5,5.73,1.99,4.5,30.7
2015-09-08 01:25:00,0.0,1.91398,0.00053,390.805,0.052,0.8249,0.0076,140.000,44.999,31848.83703,1.92994,394.784,36.626,45.066,45.000,0.00,0.10,-272.73,-272.79,-17,530,-946,27.1,17.5,0.4,27.0,18.0,0.6,5.73,1.95,4.5,30.7
2015-09-08 01:26:00,0.0,1.91369,0.00044,390.864,0.065,0.8108,0.0128,139.998,45.000,31847.26371,1.92934,394.774,36.624,45.066,45.000,0.00,0.10,-272.73,-272.80,-17,530,-946,27.1,17.2,0.1,27.0,17.7,0.4,5.73,1.90,4.4,30.7
2015-09-08 01:27:00,0.0,1.91395,0.00050,390.770,0.060,0.8334,0.0109,139.999,45.000,31843.88966,1.93011,394.793,36.574,45.066,45.000,0.00,0.10,-272.72,-272.80,-17,530,-946,27.1,17.7,0.5,26.9,18.1,0.7,5.73,1.84,4.4,30.7
2015-09-08 01:28:00,0.0,1.91348,0.00052,390.912,0.046,0.8114,0.0096,139.998,45.000,31840.82581,1.92914,394.824,36.563,45.066,45.000,0.00,0.10,-272.72,-272.80,-17,530,-946,27.1,17.3,0.2,26.9,17.8,0.4,5.73,1.80,4.3,30.7
2015-09-08 01:29:00,0.0,1.91389,0.00044,390.853,0.050,0.8249,0.0135,139.999,45.000,31841.18994,1.92983,394.835,36.562,45.067,45.000,0.00,0.10,-272.73,-272.80,-17,530,-946,27.1,17.6,0.4,26.9,18.1,0.6,5.73,1.81,4.3,30.7
2015-09-08 01:30:00,0.0,1.91332,0.00040,390.884,0.054,0.8062,0.0130,140.000,45.000,31842.02683,1.92892,394.773,36.539,45.066,45.000,0.00,0.10,-272.73,-272.79,-17,530,-946,27.1,17.1,0.0,26.9,17.7,0.3,5.73,1.85,4.3,30.7
2015-09-08 01:31:00,0.0,1.91322,0.00037,390.891,0.043,0.8050,0.0068,140.002,45.000,31842.66459,1.92878,394.773,36.502,45.066,45.000,0.00,0.10,-272.73,-272.79,-17,530,-946,27.1,17.1,0.0,26.9,17.6,0.2,5.73,1.92,4.2,30.6
2015-09-08 01:32:00,0.0,1.91308,0.00040,390.928,0.043,0.7942,0.0057,139.999,45.000,31841.41243,1.92841,394.759,36.501,45.067,45.000,0.00,0.10,-272.73,-272.79,-16,529,-946,27.1,16.9,-0.2,26.9,17.4,0.1,5.73,1.96,4.2,30.5
2015-09-08 01:33:00,0.0,1.91353,0.00041,390.947,0.028,0.7807,0.0050,140.001,45.000,31839.30309,1.92859,394.707,36.494,45.067,45.000,0.00,0.10,-272.74,-272.80,-16,529,-946,27.1,16.6,-0.4,26.9,17.2,-0.1,5.73,1.98,4.2,30.5
2015-09-08 01:34:00,0.0,1.91346,0.00038,390.878,0.050,0.7989,0.0096,139.997,45.000,31838.69803,1.92890,394.729,36.455,45.067,45.000,0.00,0.10,-272.73,-272.79,-17,529,-946,27.0,17.1,-0.1,26.9,17.3,0.0,5.73,1.95,4.1,30.5
2015-09-08 01:35:00,0.0,1.91344,0.00038,390.864,0.049,0.8065,0.0085,139.999,45.000,31836.28659,1.92900,394.754,36.443,45.067,45.000,0.00,0.35,-270.50,-271.38,-16,529,-946,27.0,17.3,0.1,26.8,17.7,0.3,5.42,2.03,-2.7,30.4
2015-09-08 01:36:00,0.0,1.91365,0.00046,390.886,0.039,0.7992,0.0120,140.001,45.000,31834.51787,1.92908,394.740,36.434,45.067,45.000,0.00,0.10,-272.73,-272.80,-17,529,-946,27.0,17.0,-0.1,26.8,17.6,0.2,5.73,1.86,4.1,30.3
2015-09-08 01:37:00,0.0,1.91367,0.00046,390.872,0.037,0.7921,0.0066,140.002,45.000,31834.69149,1.92895,394.689,36.421,45.067,45.000,0.00,0.10,-272.73,-272.79,-16,529,-946,27.0,16.9,-0.2,26.8,17.4,-0.0,5.73,1.82,4.0,30.3
2015-09-08 01:38:00,0.0,1.91392,0.00038,390.816,0.053,0.8017,0.0097,139.999,45.000,31832.30330,1.92941,394.682,36.379,45.067,45.000,0.00,0.10,-272.73,-272.79,-17,529,-946,26.9,17.2,-0.1,26.8,17.6,0.2,5.73,1.81,4.0,30.5
2015-09-08 01:39:00,0.0,1.91377,0.00044,390.807,0.053,0.8032,0.0084,140.002,45.000,31834.19170,1.92929,394.678,36.375,45.067,45.000,0.00,0.10,-272.73,-272.79,-17,529,-946,26.9,17.3,0.0,26.8,17.6,0.2,5.73,1.83,4.0,30.5
2015-09-08 01:40:00,0.0,1.91387,0.00042,390.758,0.073,0.8173,0.0134,140.001,45.000,31834.20368,1.92964,394.699,36.363,45.067,45.000,0.00,0.10,-272.73,-272.80,-17,529,-946,26.9,17.7,0.3,26.8,17.9,0.4,5.73,1.88,3.9,30.5
2015-09-08 01:41:00,0.0,1.91408,0.00039,390.629,0.041,0.8412,0.0063,139.997,45.000,31831.89091,1.93035,394.688,36.330,45.067,45.000,0.00,0.10,-272.72,-272.79,-17,529,-946,26.9,18.1,0.7,26.8,18.5,0.8,5.73,1.92,3.9,30.4
2015-09-08 01:42:00,0.0,1.91381,0.00041,390.823,0.062,0.8023,0.0096,140.000,45.000,31831.27018,1.92931,394.692,36.314,45.067,45.000,0.00,0.10,-272.73,-272.80,-17,529,-946,26.9,17.3,0.0,26.8,18.0,0.4,5.73,1.95,3.9,30.4
2015-09-08 01:43:00,0.0,1.91399,0.00054,390.760,0.076,0.8165,0.0123,140.001,45.000,31831.65118,1.92980,394.699,36.305,45.067,45.000,0.00,0.10,-272.74,-272.80,-17,529,-946,26.9,17.6,0.2,26.7,17.9,0.4,5.73,1.97,3.8,30.3
2015-09-08 01:44:00,0.0,1.91405,0.00039,390.661,0.030,0.8208,0.0088,140.001,45.000,31831.75481,1.92988,394.620,36.310,45.067,45.000,0.00,0.10,-272.73,-272.79,-17,529,-946,26.9,17.7,0.3,26.7,18.2,0.6,5.73,1.96,3.8,30.3
2015-09-08 01:45:00,0.0,1.91380,0.00048,390.741,0.049,0.8054,0.0090,140.001,45.000,31830.07806,1.92941,394.624,36.297,45.067,45.000,0.00,0.10,-272.73,-272.80,-17,529,-946,26.9,17.3,0.0,26.7,17.9,0.4,5.73,1.92,3.8,30.4
2015-09-08 01:46:00,0.0,1.91365,0.00038,390.804,0.044,0.8004,0.0068,139.999,45.000,31829.68522,1.92909,394.662,36.301,45.067,45.000,0.00,0.10,-272.74,-272.80,-17,529,-946,26.9,17.3,-0.0,26.7,17.7,0.2,5.73,1.87,3.8,30.4